Time,TemperatureF,DewpointF,PressureIn,WindDirection,WindDirectionDegrees,WindSpeedMPH,WindSpeedGustMPH,Humidity,HourlyPrecipIn,Conditions,Clouds,dailyrainin,SoftwareType,DateUTC
2013-11-04 00:01:00,41.1,39.0,29.36,SE,135,0.0,0.0,94,0.00,,,0.00,Rainwise IP-100,2013-11-04 05:01:00,
2013-11-04 00:06:00,41.0,39.0,29.36,SE,135,0.0,0.0,94,0.00,,,0.00,Rainwise IP-100,2013-11-04 05:06:00,
2013-11-04 00:11:00,40.9,39.0,29.36,SE,135,0.0,0.0,94,0.00,,,0.00,Rainwise IP-100,2013-11-04 05:11:00,
2013-11-04 00:16:00,40.9,39.0,29.36,SE,135,0.0,0.0,94,0.00,,,0.00,Rainwise IP-100,2013-11-04 05:16:00,
2013-11-04 00:21:00,40.9,39.0,29.36,SE,135,0.0,0.0,94,0.00,,,0.00,Rainwise IP-100,2013-11-04 05:21:00,
2013-11-04 00:26:00,40.7,39.0,29.36,SE,135,0.0,0.0,94,0.00,,,0.00,Rainwise IP-100,2013-11-04 05:26:00,
2013-11-04 00:31:00,40.6,39.0,29.36,SE,135,0.0,0.0,94,0.00,,,0.00,Rainwise IP-100,2013-11-04 05:31:00,
2013-11-04 00:36:00,40.5,39.0,29.36,SE,135,0.0,0.0,94,0.00,,,0.00,Rainwise IP-100,2013-11-04 05:36:00,
2013-11-04 00:41:00,40.4,39.0,29.36,SE,135,0.0,0.0,94,0.00,,,0.00,Rainwise IP-100,2013-11-04 05:41:00,
2013-11-04 00:46:00,40.3,39.0,29.36,SE,135,0.0,0.0,94,0.00,,,0.00,Rainwise IP-100,2013-11-04 05:46:00,
2013-11-04 00:51:00,40.2,39.0,29.37,SE,135,0.0,0.0,94,0.00,,,0.00,Rainwise IP-100,2013-11-04 05:51:00,
2013-11-04 00:56:00,40.1,39.0,29.36,SE,135,0.0,0.0,95,0.00,,,0.00,Rainwise IP-100,2013-11-04 05:56:00,
2013-11-04 01:01:00,40.1,39.0,29.37,SE,135,0.0,0.0,95,0.00,,,0.00,Rainwise IP-100,2013-11-04 06:01:00,
2013-11-04 01:06:00,40.1,39.0,29.36,SE,135,0.0,0.0,95,0.00,,,0.00,Rainwise IP-100,2013-11-04 06:06:00,
2013-11-04 01:11:00,40.0,39.0,29.37,SE,135,0.0,0.0,95,0.00,,,0.00,Rainwise IP-100,2013-11-04 06:11:00,
2013-11-04 01:16:00,40.0,39.0,29.37,SE,135,0.0,0.0,95,0.00,,,0.00,Rainwise IP-100,2013-11-04 06:16:00,
2013-11-04 01:21:00,40.0,39.0,29.37,SE,135,0.0,0.0,95,0.00,,,0.00,Rainwise IP-100,2013-11-04 06:21:00,
2013-11-04 01:26:00,39.9,39.0,29.37,SE,135,0.0,0.0,95,0.00,,,0.00,Rainwise IP-100,2013-11-04 06:26:00,
2013-11-04 01:31:00,39.8,39.0,29.37,SE,135,0.0,0.0,95,0.00,,,0.00,Rainwise IP-100,2013-11-04 06:31:00,
2013-11-04 01:36:00,39.7,39.0,29.37,SE,135,0.0,0.0,95,0.00,,,0.00,Rainwise IP-100,2013-11-04 06:36:00,
2013-11-04 01:41:00,39.6,39.0,29.37,SE,135,0.0,0.0,95,0.00,,,0.00,Rainwise IP-100,2013-11-04 06:41:00,
2013-11-04 01:46:00,39.5,39.0,29.37,SE,135,0.0,0.0,95,0.00,,,0.00,Rainwise IP-100,2013-11-04 06:46:00,
2013-11-04 01:51:00,39.5,39.0,29.38,SE,135,0.0,0.0,95,0.00,,,0.00,Rainwise IP-100,2013-11-04 06:51:00,
2013-11-04 01:56:00,39.4,38.0,29.37,SE,135,0.0,0.0,95,0.00,,,0.00,Rainwise IP-100,2013-11-04 06:56:00,
2013-11-04 02:01:00,39.4,38.0,29.38,SE,135,0.0,0.0,95,0.00,,,0.00,Rainwise IP-100,2013-11-04 07:01:00,
2013-11-04 02:06:00,39.3,38.0,29.38,SE,135,0.0,0.0,95,0.00,,,0.00,Rainwise IP-100,2013-11-04 07:06:00,
2013-11-04 02:11:00,39.3,38.0,29.38,SE,135,0.0,0.0,95,0.00,,,0.00,Rainwise IP-100,2013-11-04 07:11:00,
2013-11-04 02:16:00,39.3,38.0,29.38,SE,135,0.0,0.0,95,0.00,,,0.00,Rainwise IP-100,2013-11-04 07:16:00,
2013-11-04 02:21:00,39.3,38.0,29.37,SE,135,0.0,0.0,95,0.00,,,0.00,Rainwise IP-100,2013-11-04 07:21:00,
2013-11-04 02:26:00,39.2,38.0,29.37,SE,135,0.0,0.0,96,0.00,,,0.00,Rainwise IP-100,2013-11-04 07:26:00,
2013-11-04 02:31:00,39.2,38.0,29.38,SE,135,0.0,0.0,96,0.00,,,0.00,Rainwise IP-100,2013-11-04 07:31:00,
2013-11-04 02:36:00,39.2,38.0,29.38,SE,135,0.0,0.0,96,0.00,,,0.00,Rainwise IP-100,2013-11-04 07:36:00,
2013-11-04 02:41:00,39.1,38.0,29.38,SE,135,0.0,0.0,95,0.00,,,0.00,Rainwise IP-100,2013-11-04 07:41:00,
2013-11-04 02:46:00,39.1,38.0,29.38,SE,135,0.0,0.0,95,0.00,,,0.00,Rainwise IP-100,2013-11-04 07:46:00,
2013-11-04 02:51:00,39.0,38.0,29.38,SE,135,0.0,0.0,95,0.00,,,0.00,Rainwise IP-100,2013-11-04 07:51:00,
2013-11-04 02:56:00,38.9,38.0,29.38,SE,135,0.0,0.0,96,0.00,,,0.00,Rainwise IP-100,2013-11-04 07:56:00,
2013-11-04 03:01:00,38.8,38.0,29.38,SE,135,0.0,0.0,96,0.00,,,0.00,Rainwise IP-100,2013-11-04 08:01:00,
2013-11-04 03:06:00,38.7,38.0,29.39,SE,135,0.0,0.0,96,0.00,,,0.00,Rainwise IP-100,2013-11-04 08:06:00,
2013-11-04 03:11:00,38.7,38.0,29.38,SE,135,0.0,0.0,96,0.00,,,0.00,Rainwise IP-100,2013-11-04 08:11:00,
2013-11-04 03:16:00,38.6,38.0,29.39,SE,135,0.0,0.0,96,0.00,,,0.00,Rainwise IP-100,2013-11-04 08:16:00,
2013-11-04 03:21:00,38.6,38.0,29.38,SE,135,0.0,0.0,96,0.00,,,0.00,Rainwise IP-100,2013-11-04 08:21:00,
2013-11-04 03:26:00,38.6,38.0,29.39,SE,135,0.0,0.0,96,0.00,,,0.00,Rainwise IP-100,2013-11-04 08:26:00,
2013-11-04 03:31:00,38.5,38.0,29.39,SE,135,0.0,0.0,96,0.00,,,0.00,Rainwise IP-100,2013-11-04 08:31:00,
2013-11-04 03:36:00,38.4,37.0,29.39,SE,135,0.0,0.0,96,0.00,,,0.00,Rainwise IP-100,2013-11-04 08:36:00,
2013-11-04 03:41:00,38.4,37.0,29.39,SE,135,0.0,0.0,96,0.00,,,0.00,Rainwise IP-100,2013-11-04 08:41:00,
2013-11-04 03:46:00,38.4,37.0,29.39,SE,135,0.0,0.0,96,0.00,,,0.00,Rainwise IP-100,2013-11-04 08:46:00,
2013-11-04 03:51:00,38.4,37.0,29.39,SE,135,0.0,0.0,96,0.00,,,0.00,Rainwise IP-100,2013-11-04 08:51:00,
2013-11-04 03:56:00,38.4,37.0,29.40,SE,135,0.0,0.0,96,0.00,,,0.00,Rainwise IP-100,2013-11-04 08:56:00,
2013-11-04 04:01:00,38.3,37.0,29.39,SE,135,0.0,0.0,96,0.00,,,0.00,Rainwise IP-100,2013-11-04 09:01:00,
2013-11-04 04:06:00,38.3,37.0,29.39,SE,135,0.0,0.0,96,0.00,,,0.00,Rainwise IP-100,2013-11-04 09:06:00,
2013-11-04 04:11:00,38.3,37.0,29.39,SE,135,0.0,0.0,96,0.00,,,0.00,Rainwise IP-100,2013-11-04 09:11:00,
2013-11-04 04:16:00,38.3,37.0,29.39,SE,135,0.0,0.0,96,0.00,,,0.00,Rainwise IP-100,2013-11-04 09:16:00,
2013-11-04 04:21:00,38.2,37.0,29.39,SE,135,0.0,0.0,96,0.00,,,0.00,Rainwise IP-100,2013-11-04 09:21:00,
2013-11-04 04:26:00,38.2,37.0,29.40,SE,135,0.0,0.0,96,0.00,,,0.00,Rainwise IP-100,2013-11-04 09:26:00,
2013-11-04 04:31:00,38.2,37.0,29.40,SE,135,0.0,0.0,96,0.00,,,0.00,Rainwise IP-100,2013-11-04 09:31:00,
2013-11-04 04:36:00,38.1,37.0,29.40,SE,135,0.0,0.0,97,0.00,,,0.00,Rainwise IP-100,2013-11-04 09:36:00,
2013-11-04 04:41:00,38.1,37.0,29.40,SE,135,0.0,0.0,97,0.00,,,0.00,Rainwise IP-100,2013-11-04 09:41:00,
2013-11-04 04:46:00,38.1,37.0,29.40,SE,135,0.0,0.0,97,0.00,,,0.00,Rainwise IP-100,2013-11-04 09:46:00,
2013-11-04 04:51:00,38.1,37.0,29.39,SE,135,0.0,0.0,97,0.00,,,0.00,Rainwise IP-100,2013-11-04 09:51:00,
2013-11-04 04:56:00,38.1,37.0,29.40,SE,135,0.0,0.0,97,0.00,,,0.00,Rainwise IP-100,2013-11-04 09:56:00,
2013-11-04 05:01:00,38.1,37.0,29.40,SE,135,0.0,0.0,97,0.00,,,0.00,Rainwise IP-100,2013-11-04 10:01:00,
2013-11-04 05:06:00,38.1,37.0,29.39,SE,135,0.0,0.0,97,0.00,,,0.00,Rainwise IP-100,2013-11-04 10:06:00,
2013-11-04 05:11:00,38.2,37.0,29.39,SE,135,0.0,0.0,97,0.00,,,0.00,Rainwise IP-100,2013-11-04 10:11:00,
2013-11-04 05:16:00,38.3,37.0,29.39,SE,135,0.0,0.0,97,0.00,,,0.00,Rainwise IP-100,2013-11-04 10:16:00,
2013-11-04 05:21:00,38.4,37.0,29.39,SE,135,0.0,0.0,97,0.00,,,0.00,Rainwise IP-100,2013-11-04 10:21:00,
2013-11-04 05:26:00,38.6,38.0,29.38,SE,135,0.0,0.0,97,0.00,,,0.00,Rainwise IP-100,2013-11-04 10:26:00,
2013-11-04 05:31:00,38.8,38.0,29.39,NNE,22,0.0,0.0,97,0.00,,,0.00,Rainwise IP-100,2013-11-04 10:31:00,
2013-11-04 05:36:00,39.1,38.0,29.39,North,0,0.0,1.0,97,0.00,,,0.00,Rainwise IP-100,2013-11-04 10:36:00,
2013-11-04 05:41:00,39.4,38.0,29.39,NNE,22,0.0,2.0,97,0.00,,,0.00,Rainwise IP-100,2013-11-04 10:41:00,
2013-11-04 05:46:00,39.8,40.0,29.39,NNE,22,0.0,0.0,98,0.00,,,0.00,Rainwise IP-100,2013-11-04 10:46:00,
2013-11-04 05:51:00,39.9,39.0,29.39,NNE,22,0.0,1.0,97,0.00,,,0.00,Rainwise IP-100,2013-11-04 10:51:00,
2013-11-04 05:56:00,40.1,39.0,29.40,NNE,22,0.0,1.0,97,0.00,,,0.00,Rainwise IP-100,2013-11-04 10:56:00,
2013-11-04 06:01:00,40.3,39.0,29.41,NNE,22,0.0,0.0,97,0.00,,,0.00,Rainwise IP-100,2013-11-04 11:01:00,
2013-11-04 06:06:00,40.5,40.0,29.42,NNE,22,0.0,0.0,97,0.00,,,0.00,Rainwise IP-100,2013-11-04 11:06:00,
2013-11-04 06:11:00,40.5,40.0,29.44,NNE,22,0.0,0.0,97,0.00,,,0.00,Rainwise IP-100,2013-11-04 11:11:00,
2013-11-04 06:16:00,40.4,39.0,29.43,NNE,22,0.0,0.0,97,0.00,,,0.00,Rainwise IP-100,2013-11-04 11:16:00,
2013-11-04 06:21:00,40.3,39.0,29.44,NNE,22,0.0,0.0,96,0.00,,,0.00,Rainwise IP-100,2013-11-04 11:21:00,
2013-11-04 06:26:00,40.2,39.0,29.44,NNE,22,0.0,0.0,96,0.00,,,0.00,Rainwise IP-100,2013-11-04 11:26:00,
2013-11-04 06:31:00,40.1,39.0,29.44,NNE,22,0.0,0.0,96,0.00,,,0.00,Rainwise IP-100,2013-11-04 11:31:00,
2013-11-04 06:36:00,40.0,39.0,29.43,NNE,22,1.2,2.0,96,0.00,,,0.00,Rainwise IP-100,2013-11-04 11:36:00,
2013-11-04 06:41:00,40.0,39.0,29.41,NNE,22,0.0,1.0,96,0.00,,,0.00,Rainwise IP-100,2013-11-04 11:41:00,
2013-11-04 06:46:00,40.0,39.0,29.41,NNE,22,2.8,3.0,96,0.00,,,0.00,Rainwise IP-100,2013-11-04 11:46:00,
2013-11-04 06:51:00,40.5,40.0,29.41,North,0,0.0,4.0,95,0.00,,,0.00,Rainwise IP-100,2013-11-04 11:51:00,
2013-11-04 06:56:00,41.0,39.0,29.41,NNE,22,0.0,4.0,94,0.00,,,0.00,Rainwise IP-100,2013-11-04 11:56:00,
2013-11-04 07:01:00,41.4,39.0,29.42,NNE,22,0.0,0.0,94,0.00,,,0.00,Rainwise IP-100,2013-11-04 12:01:00,
2013-11-04 07:06:00,41.6,40.0,29.42,NNE,22,0.0,1.0,94,0.00,,,0.00,Rainwise IP-100,2013-11-04 12:06:00,
2013-11-04 07:11:00,41.7,40.0,29.43,NNE,22,0.0,2.0,93,0.00,,,0.00,Rainwise IP-100,2013-11-04 12:11:00,
2013-11-04 07:16:00,42.0,40.0,29.42,West,270,0.0,1.0,92,0.00,,,0.00,Rainwise IP-100,2013-11-04 12:16:00,
2013-11-04 07:21:00,42.2,40.0,29.43,North,0,2.1,2.1,91,0.00,,,0.00,Rainwise IP-100,2013-11-04 12:21:00,
2013-11-04 07:26:00,42.6,40.0,29.43,NNW,337,1.6,3.0,91,0.00,,,0.00,Rainwise IP-100,2013-11-04 12:26:00,
2013-11-04 07:31:00,42.8,40.0,29.43,North,0,0.0,1.0,90,0.00,,,0.00,Rainwise IP-100,2013-11-04 12:31:00,
2013-11-04 07:36:00,43.1,40.0,29.42,North,0,0.0,2.0,89,0.00,,,0.00,Rainwise IP-100,2013-11-04 12:36:00,
2013-11-04 07:41:00,43.3,40.0,29.42,SSW,202,0.0,3.0,89,0.00,,,0.00,Rainwise IP-100,2013-11-04 12:41:00,
2013-11-04 07:46:00,43.5,41.0,29.43,NNW,337,0.0,2.0,88,0.00,,,0.00,Rainwise IP-100,2013-11-04 12:46:00,
2013-11-04 07:51:00,43.8,40.0,29.44,NNE,22,0.0,5.0,87,0.00,,,0.00,Rainwise IP-100,2013-11-04 12:51:00,
2013-11-04 07:56:00,44.1,40.0,29.45,WNW,292,1.6,3.0,86,0.00,,,0.00,Rainwise IP-100,2013-11-04 12:56:00,
2013-11-04 08:01:00,44.5,41.0,29.45,NNW,337,0.0,4.0,85,0.00,,,0.00,Rainwise IP-100,2013-11-04 13:01:00,
2013-11-04 08:06:00,44.7,40.0,29.45,West,270,0.0,2.0,84,0.00,,,0.00,Rainwise IP-100,2013-11-04 13:06:00,
2013-11-04 08:11:00,44.9,40.0,29.46,NNE,22,0.0,1.0,83,0.00,,,0.00,Rainwise IP-100,2013-11-04 13:11:00,
2013-11-04 08:16:00,45.2,40.0,29.47,North,0,0.0,5.0,83,0.00,,,0.00,Rainwise IP-100,2013-11-04 13:16:00,
2013-11-04 08:21:00,45.4,40.0,29.46,North,0,1.6,2.0,82,0.00,,,0.00,Rainwise IP-100,2013-11-04 13:21:00,
2013-11-04 08:26:00,45.6,40.0,29.46,NNE,22,0.0,4.0,82,0.00,,,0.00,Rainwise IP-100,2013-11-04 13:26:00,
2013-11-04 08:31:00,45.9,40.0,29.46,NNE,22,0.0,3.0,81,0.00,,,0.00,Rainwise IP-100,2013-11-04 13:31:00,
2013-11-04 08:36:00,46.2,40.0,29.46,West,270,0.0,0.0,81,0.00,,,0.00,Rainwise IP-100,2013-11-04 13:36:00,
2013-11-04 08:41:00,46.3,40.0,29.46,WSW,247,0.0,4.0,80,0.00,,,0.00,Rainwise IP-100,2013-11-04 13:41:00,
2013-11-04 08:46:00,46.5,41.0,29.47,North,0,2.3,2.3,80,0.00,,,0.00,Rainwise IP-100,2013-11-04 13:46:00,
2013-11-04 08:51:00,46.6,40.0,29.47,NNW,337,0.0,2.0,79,0.00,,,0.00,Rainwise IP-100,2013-11-04 13:51:00,
2013-11-04 08:56:00,46.7,40.0,29.49,NNW,337,0.0,2.0,78,0.00,,,0.00,Rainwise IP-100,2013-11-04 13:56:00,
2013-11-04 09:01:00,46.9,40.0,29.49,NNW,337,0.0,3.0,78,0.00,,,0.00,Rainwise IP-100,2013-11-04 14:01:00,
2013-11-04 09:06:00,47.0,40.0,29.49,NNW,337,0.0,2.0,78,0.00,,,0.00,Rainwise IP-100,2013-11-04 14:06:00,
2013-11-04 09:11:00,47.2,40.0,29.49,NNE,22,0.0,2.0,77,0.00,,,0.00,Rainwise IP-100,2013-11-04 14:11:00,
2013-11-04 09:16:00,47.5,40.0,29.48,South,180,0.0,2.0,77,0.00,,,0.00,Rainwise IP-100,2013-11-04 14:16:00,
2013-11-04 09:21:00,47.8,40.0,29.48,SW,225,1.4,2.0,77,0.00,,,0.00,Rainwise IP-100,2013-11-04 14:21:00,
2013-11-04 09:26:00,48.2,41.0,29.48,SSW,202,0.0,4.0,76,0.00,,,0.00,Rainwise IP-100,2013-11-04 14:26:00,
2013-11-04 09:31:00,48.6,41.0,29.48,SSW,202,0.0,4.0,75,0.00,,,0.00,Rainwise IP-100,2013-11-04 14:31:00,
2013-11-04 09:36:00,49.1,41.0,29.48,NNE,22,0.0,4.0,75,0.00,,,0.00,Rainwise IP-100,2013-11-04 14:36:00,
2013-11-04 09:41:00,49.7,42.0,29.49,SSW,202,0.0,1.0,74,0.00,,,0.00,Rainwise IP-100,2013-11-04 14:41:00,
2013-11-04 09:46:00,50.0,41.0,29.48,SSW,202,3.3,3.3,73,0.00,,,0.00,Rainwise IP-100,2013-11-04 14:46:00,
2013-11-04 09:51:00,50.3,41.0,29.48,WNW,292,0.0,6.0,72,0.00,,,0.00,Rainwise IP-100,2013-11-04 14:51:00,
2013-11-04 09:56:00,50.7,41.0,29.48,SSW,202,1.2,2.0,71,0.00,,,0.00,Rainwise IP-100,2013-11-04 14:56:00,
2013-11-04 10:01:00,51.1,42.0,29.48,NNW,337,4.7,5.0,71,0.00,,,0.00,Rainwise IP-100,2013-11-04 15:01:00,
2013-11-04 10:06:00,51.5,42.0,29.48,SSW,202,2.8,7.0,70,0.00,,,0.00,Rainwise IP-100,2013-11-04 15:06:00,
2013-11-04 10:11:00,51.8,42.0,29.46,SSW,202,0.0,3.0,69,0.00,,,0.00,Rainwise IP-100,2013-11-04 15:11:00,
2013-11-04 10:16:00,52.2,42.0,29.46,SSW,202,0.0,4.0,68,0.00,,,0.00,Rainwise IP-100,2013-11-04 15:16:00,
2013-11-04 10:21:00,52.6,42.0,29.46,SSW,202,2.3,2.3,68,0.00,,,0.00,Rainwise IP-100,2013-11-04 15:21:00,
2013-11-04 10:26:00,52.9,42.0,29.46,SW,225,0.0,4.0,67,0.00,,,0.00,Rainwise IP-100,2013-11-04 15:26:00,
2013-11-04 10:31:00,53.3,41.0,29.47,WNW,292,0.0,5.0,66,0.00,,,0.00,Rainwise IP-100,2013-11-04 15:31:00,
2013-11-04 10:36:00,53.6,42.0,29.47,WSW,247,0.0,3.0,65,0.00,,,0.00,Rainwise IP-100,2013-11-04 15:36:00,
2013-11-04 10:41:00,54.0,42.0,29.48,SSW,202,1.9,6.0,65,0.00,,,0.00,Rainwise IP-100,2013-11-04 15:41:00,
2013-11-04 10:46:00,54.4,43.0,29.48,SW,225,1.9,5.0,64,0.00,,,0.00,Rainwise IP-100,2013-11-04 15:46:00,
2013-11-04 10:51:00,54.6,42.0,29.47,ENE,67,0.0,4.0,62,0.00,,,0.00,Rainwise IP-100,2013-11-04 15:51:00,
2013-11-04 10:56:00,55.0,42.0,29.47,NNW,337,0.0,4.0,62,0.00,,,0.00,Rainwise IP-100,2013-11-04 15:56:00,
2013-11-04 11:01:00,55.4,42.0,29.47,SSW,202,2.8,4.0,61,0.00,,,0.00,Rainwise IP-100,2013-11-04 16:01:00,
2013-11-04 11:06:00,55.7,42.0,29.47,SSW,202,5.4,5.4,60,0.00,,,0.00,Rainwise IP-100,2013-11-04 16:06:00,
2013-11-04 11:11:00,56.0,42.0,29.47,SW,225,2.3,6.0,59,0.00,,,0.00,Rainwise IP-100,2013-11-04 16:11:00,
2013-11-04 11:16:00,56.3,42.0,29.47,NNW,337,2.8,5.0,59,0.00,,,0.00,Rainwise IP-100,2013-11-04 16:16:00,
2013-11-04 11:21:00,56.6,42.0,29.47,South,180,1.2,4.0,58,0.00,,,0.00,Rainwise IP-100,2013-11-04 16:21:00,
2013-11-04 11:26:00,56.9,42.0,29.48,South,180,0.0,6.0,58,0.00,,,0.00,Rainwise IP-100,2013-11-04 16:26:00,
2013-11-04 11:31:00,57.4,42.0,29.48,SW,225,0.0,4.0,56,0.00,,,0.00,Rainwise IP-100,2013-11-04 16:31:00,
2013-11-04 11:36:00,58.0,42.0,29.48,SSW,202,1.9,5.0,55,0.00,,,0.00,Rainwise IP-100,2013-11-04 16:36:00,
2013-11-04 11:41:00,58.4,41.0,29.48,SSW,202,0.0,5.0,54,0.00,,,0.00,Rainwise IP-100,2013-11-04 16:41:00,
2013-11-04 11:46:00,58.7,42.0,29.47,SSW,202,1.4,7.0,54,0.00,,,0.00,Rainwise IP-100,2013-11-04 16:46:00,
2013-11-04 11:51:00,59.0,42.0,29.48,NNW,337,0.0,5.0,53,0.00,,,0.00,Rainwise IP-100,2013-11-04 16:51:00,
2013-11-04 11:54:00,59.3,41.0,29.48,SSE,157,1.9,5.0,52,0.00,,,0.00,Rainwise IP-100,2013-11-04 16:54:00,
2013-11-04 11:59:00,59.7,41.0,29.47,WSW,247,0.0,7.0,51,0.00,,,0.00,Rainwise IP-100,2013-11-04 16:59:00,
2013-11-04 12:04:00,60.1,42.0,29.47,SSW,202,4.0,7.0,51,0.00,,,0.00,Rainwise IP-100,2013-11-04 17:04:00,
2013-11-04 12:09:00,60.5,42.0,29.47,WSW,247,0.0,10.0,51,0.00,,,0.00,Rainwise IP-100,2013-11-04 17:09:00,
2013-11-04 12:14:00,61.0,42.0,29.47,SSE,157,0.0,6.0,50,0.00,,,0.00,Rainwise IP-100,2013-11-04 17:14:00,
2013-11-04 12:19:00,61.6,42.0,29.46,ESE,112,1.2,6.0,49,0.00,,,0.00,Rainwise IP-100,2013-11-04 17:19:00,
2013-11-04 12:24:00,61.9,42.0,29.46,North,0,1.6,7.0,48,0.00,,,0.00,Rainwise IP-100,2013-11-04 17:24:00,
2013-11-04 12:29:00,62.2,41.0,29.46,SSW,202,5.1,5.1,47,0.00,,,0.00,Rainwise IP-100,2013-11-04 17:29:00,
2013-11-04 12:34:00,62.1,41.0,29.46,SSW,202,2.8,6.0,47,0.00,,,0.00,Rainwise IP-100,2013-11-04 17:34:00,
2013-11-04 12:39:00,61.9,41.0,29.46,SSW,202,0.0,6.0,47,0.00,,,0.00,Rainwise IP-100,2013-11-04 17:39:00,
2013-11-04 12:44:00,61.9,41.0,29.46,SW,225,1.6,6.0,47,0.00,,,0.00,Rainwise IP-100,2013-11-04 17:44:00,
2013-11-04 12:49:00,61.9,41.0,29.46,SSE,157,0.0,7.0,47,0.00,,,0.00,Rainwise IP-100,2013-11-04 17:49:00,
2013-11-04 12:54:00,62.2,41.0,29.45,SSE,157,1.2,3.0,47,0.00,,,0.00,Rainwise IP-100,2013-11-04 17:54:00,
2013-11-04 12:59:00,62.6,42.0,29.45,SSW,202,1.2,4.0,47,0.00,,,0.00,Rainwise IP-100,2013-11-04 17:59:00,
2013-11-04 13:04:00,62.9,42.0,29.45,SSW,202,3.7,4.0,46,0.00,,,0.00,Rainwise IP-100,2013-11-04 18:04:00,
2013-11-04 13:09:00,62.8,41.0,29.44,SW,225,1.2,4.0,45,0.00,,,0.00,Rainwise IP-100,2013-11-04 18:09:00,
2013-11-04 13:14:00,62.7,40.0,29.44,SSW,202,1.9,6.0,44,0.00,,,0.00,Rainwise IP-100,2013-11-04 18:14:00,
2013-11-04 13:19:00,62.9,41.0,29.44,North,0,2.3,6.0,45,0.00,,,0.00,Rainwise IP-100,2013-11-04 18:19:00,
2013-11-04 13:24:00,63.0,41.0,29.43,NNW,337,4.0,7.0,44,0.00,,,0.00,Rainwise IP-100,2013-11-04 18:24:00,
2013-11-04 13:29:00,63.2,41.0,29.43,NE,45,0.0,6.0,44,0.00,,,0.00,Rainwise IP-100,2013-11-04 18:29:00,
2013-11-04 13:34:00,63.4,40.0,29.43,SSW,202,1.9,5.0,43,0.00,,,0.00,Rainwise IP-100,2013-11-04 18:34:00,
2013-11-04 13:39:00,63.5,40.0,29.43,SSW,202,4.9,5.0,43,0.00,,,0.00,Rainwise IP-100,2013-11-04 18:39:00,
2013-11-04 13:44:00,62.9,40.0,29.43,SW,225,0.0,5.0,43,0.00,,,0.00,Rainwise IP-100,2013-11-04 18:44:00,
2013-11-04 13:49:00,62.9,40.0,29.43,SSE,157,0.0,3.0,43,0.00,,,0.00,Rainwise IP-100,2013-11-04 18:49:00,
2013-11-04 13:54:00,63.1,40.0,29.43,SSW,202,0.0,6.0,43,0.00,,,0.00,Rainwise IP-100,2013-11-04 18:54:00,
2013-11-04 13:59:00,62.9,40.0,29.43,SSW,202,1.9,6.0,43,0.00,,,0.00,Rainwise IP-100,2013-11-04 18:59:00,
2013-11-04 14:04:00,62.9,40.0,29.43,South,180,0.0,4.0,43,0.00,,,0.00,Rainwise IP-100,2013-11-04 19:04:00,
2013-11-04 14:09:00,62.9,40.0,29.43,SSW,202,1.4,6.0,43,0.00,,,0.00,Rainwise IP-100,2013-11-04 19:09:00,
2013-11-04 14:14:00,63.0,40.0,29.43,SSE,157,0.0,3.0,43,0.00,,,0.00,Rainwise IP-100,2013-11-04 19:14:00,
2013-11-04 14:19:00,63.5,40.0,29.42,SSW,202,2.1,2.1,43,0.00,,,0.00,Rainwise IP-100,2013-11-04 19:19:00,
2013-11-04 14:24:00,63.8,40.0,29.42,South,180,2.1,5.0,42,0.00,,,0.00,Rainwise IP-100,2013-11-04 19:24:00,
2013-11-04 14:29:00,64.2,40.0,29.42,South,180,2.1,6.0,41,0.00,,,0.00,Rainwise IP-100,2013-11-04 19:29:00,
2013-11-04 14:34:00,64.2,40.0,29.41,SSW,202,1.4,7.0,41,0.00,,,0.00,Rainwise IP-100,2013-11-04 19:34:00,
2013-11-04 14:39:00,63.6,39.0,29.41,NNW,337,0.0,5.0,41,0.00,,,0.00,Rainwise IP-100,2013-11-04 19:39:00,
2013-11-04 14:44:00,63.4,40.0,29.42,WSW,247,0.0,2.0,42,0.00,,,0.00,Rainwise IP-100,2013-11-04 19:44:00,
2013-11-04 14:49:00,63.6,39.0,29.41,South,180,1.9,4.0,41,0.00,,,0.00,Rainwise IP-100,2013-11-04 19:49:00,
2013-11-04 14:54:00,64.0,40.0,29.41,SW,225,1.4,3.0,41,0.00,,,0.00,Rainwise IP-100,2013-11-04 19:54:00,
2013-11-04 14:59:00,64.3,40.0,29.41,SSW,202,1.9,5.0,41,0.00,,,0.00,Rainwise IP-100,2013-11-04 19:59:00,
2013-11-04 15:04:00,64.6,40.0,29.41,NE,45,1.6,5.0,41,0.00,,,0.00,Rainwise IP-100,2013-11-04 20:04:00,
2013-11-04 15:09:00,64.5,39.0,29.41,NNW,337,3.0,6.0,40,0.00,,,0.00,Rainwise IP-100,2013-11-04 20:09:00,
2013-11-04 15:14:00,64.1,39.0,29.42,NW,315,0.0,4.0,40,0.00,,,0.00,Rainwise IP-100,2013-11-04 20:14:00,
2013-11-04 15:19:00,63.7,39.0,29.41,SSW,202,1.2,5.0,41,0.00,,,0.00,Rainwise IP-100,2013-11-04 20:19:00,
2013-11-04 15:24:00,63.4,39.0,29.42,NNE,22,1.6,6.0,41,0.00,,,0.00,Rainwise IP-100,2013-11-04 20:24:00,
2013-11-04 15:29:00,63.1,39.0,29.42,NNW,337,0.0,4.0,42,0.00,,,0.00,Rainwise IP-100,2013-11-04 20:29:00,
2013-11-04 15:34:00,63.0,39.0,29.42,NNE,22,2.6,3.0,42,0.00,,,0.00,Rainwise IP-100,2013-11-04 20:34:00,
2013-11-04 15:39:00,63.0,39.0,29.42,NNW,337,2.1,3.0,41,0.00,,,0.00,Rainwise IP-100,2013-11-04 20:39:00,
2013-11-04 15:44:00,62.8,39.0,29.43,SW,225,0.0,6.0,42,0.00,,,0.00,Rainwise IP-100,2013-11-04 20:44:00,
2013-11-04 15:49:00,62.6,39.0,29.43,NNW,337,2.1,3.0,42,0.00,,,0.00,Rainwise IP-100,2013-11-04 20:49:00,
2013-11-04 15:54:00,62.3,39.0,29.42,North,0,1.2,5.0,42,0.00,,,0.00,Rainwise IP-100,2013-11-04 20:54:00,
2013-11-04 15:59:00,62.3,39.0,29.42,SSW,202,0.0,3.0,43,0.00,,,0.00,Rainwise IP-100,2013-11-04 20:59:00,
2013-11-04 16:04:00,62.2,39.0,29.43,SSW,202,2.1,2.1,43,0.00,,,0.00,Rainwise IP-100,2013-11-04 21:04:00,
2013-11-04 16:09:00,61.7,39.0,29.42,NNW,337,0.0,4.0,43,0.00,,,0.00,Rainwise IP-100,2013-11-04 21:09:00,
2013-11-04 16:14:00,61.3,38.0,29.42,NNE,22,0.0,2.0,43,0.00,,,0.00,Rainwise IP-100,2013-11-04 21:14:00,
2013-11-04 16:19:00,61.1,38.0,29.42,NNE,22,0.0,1.0,43,0.00,,,0.00,Rainwise IP-100,2013-11-04 21:19:00,
2013-11-04 16:24:00,60.8,38.0,29.42,North,0,0.0,3.0,44,0.00,,,0.00,Rainwise IP-100,2013-11-04 21:24:00,
2013-11-04 16:29:00,60.5,38.0,29.42,WNW,292,0.0,2.0,44,0.00,,,0.00,Rainwise IP-100,2013-11-04 21:29:00,
2013-11-04 16:34:00,60.3,38.0,29.43,NNW,337,0.0,1.0,44,0.00,,,0.00,Rainwise IP-100,2013-11-04 21:34:00,
2013-11-04 16:39:00,59.9,38.0,29.42,WSW,247,0.0,1.0,44,0.00,,,0.00,Rainwise IP-100,2013-11-04 21:39:00,
2013-11-04 16:44:00,59.6,37.0,29.42,NNW,337,0.0,3.0,44,0.00,,,0.00,Rainwise IP-100,2013-11-04 21:44:00,
2013-11-04 16:49:00,59.3,38.0,29.42,NNW,337,0.0,0.0,45,0.00,,,0.00,Rainwise IP-100,2013-11-04 21:49:00,
2013-11-04 16:54:00,59.0,38.0,29.42,NNW,337,0.0,2.0,45,0.00,,,0.00,Rainwise IP-100,2013-11-04 21:54:00,
2013-11-04 16:59:00,58.8,38.0,29.42,SSW,202,0.0,3.0,46,0.00,,,0.00,Rainwise IP-100,2013-11-04 21:59:00,
2013-11-04 17:04:00,58.7,38.0,29.42,SSW,202,0.0,0.0,46,0.00,,,0.00,Rainwise IP-100,2013-11-04 22:04:00,
2013-11-04 17:09:00,58.3,38.0,29.43,SSW,202,0.0,0.0,47,0.00,,,0.00,Rainwise IP-100,2013-11-04 22:09:00,
2013-11-04 17:14:00,58.1,39.0,29.42,SSW,202,0.0,0.0,48,0.00,,,0.00,Rainwise IP-100,2013-11-04 22:14:00,
2013-11-04 17:19:00,58.0,39.0,29.42,North,0,0.0,3.0,48,0.00,,,0.00,Rainwise IP-100,2013-11-04 22:19:00,
2013-11-04 17:24:00,57.7,38.0,29.41,North,0,0.0,1.0,48,0.00,,,0.00,Rainwise IP-100,2013-11-04 22:24:00,
2013-11-04 17:29:00,57.4,39.0,29.41,North,0,0.0,0.0,49,0.00,,,0.00,Rainwise IP-100,2013-11-04 22:29:00,
2013-11-04 17:34:00,57.2,39.0,29.42,North,0,0.0,0.0,50,0.00,,,0.00,Rainwise IP-100,2013-11-04 22:34:00,
2013-11-04 17:39:00,56.9,39.0,29.42,North,0,0.0,0.0,52,0.00,,,0.00,Rainwise IP-100,2013-11-04 22:39:00,
2013-11-04 17:44:00,56.6,40.0,29.42,North,0,0.0,0.0,54,0.00,,,0.00,Rainwise IP-100,2013-11-04 22:44:00,
2013-11-04 17:49:00,56.3,40.0,29.42,North,0,0.0,0.0,55,0.00,,,0.00,Rainwise IP-100,2013-11-04 22:49:00,
2013-11-04 17:54:00,55.9,40.0,29.42,North,0,0.0,0.0,56,0.00,,,0.00,Rainwise IP-100,2013-11-04 22:54:00,
2013-11-04 17:59:00,55.5,41.0,29.42,North,0,0.0,0.0,57,0.00,,,0.00,Rainwise IP-100,2013-11-04 22:59:00,
2013-11-04 18:04:00,55.1,41.0,29.42,North,0,0.0,0.0,58,0.00,,,0.00,Rainwise IP-100,2013-11-04 23:04:00,
2013-11-04 18:09:00,54.6,40.0,29.42,North,0,0.0,0.0,59,0.00,,,0.00,Rainwise IP-100,2013-11-04 23:09:00,
2013-11-04 18:14:00,54.1,40.0,29.43,North,0,0.0,0.0,59,0.00,,,0.00,Rainwise IP-100,2013-11-04 23:14:00,
2013-11-04 18:19:00,53.7,39.0,29.42,North,0,0.0,0.0,59,0.00,,,0.00,Rainwise IP-100,2013-11-04 23:19:00,
2013-11-04 18:24:00,53.3,39.0,29.43,North,0,0.0,0.0,60,0.00,,,0.00,Rainwise IP-100,2013-11-04 23:24:00,
2013-11-04 18:29:00,52.8,39.0,29.42,North,0,0.0,0.0,61,0.00,,,0.00,Rainwise IP-100,2013-11-04 23:29:00,
2013-11-04 18:34:00,52.4,39.0,29.42,North,0,0.0,0.0,62,0.00,,,0.00,Rainwise IP-100,2013-11-04 23:34:00,
2013-11-04 18:39:00,52.1,40.0,29.43,North,0,0.0,0.0,63,0.00,,,0.00,Rainwise IP-100,2013-11-04 23:39:00,
2013-11-04 18:44:00,51.8,40.0,29.43,North,0,0.0,0.0,64,0.00,,,0.00,Rainwise IP-100,2013-11-04 23:44:00,
2013-11-04 18:49:00,51.5,40.0,29.43,North,0,0.0,0.0,65,0.00,,,0.00,Rainwise IP-100,2013-11-04 23:49:00,
2013-11-04 18:54:00,51.1,40.0,29.43,North,0,0.0,0.0,65,0.00,,,0.00,Rainwise IP-100,2013-11-04 23:54:00,
2013-11-04 18:59:00,50.9,40.0,29.43,North,0,0.0,0.0,66,0.00,,,0.00,Rainwise IP-100,2013-11-04 23:59:00,
2013-11-04 19:04:00,50.7,40.0,29.43,North,0,0.0,0.0,67,0.00,,,0.00,Rainwise IP-100,2013-11-05 00:04:00,
2013-11-04 19:09:00,50.5,40.0,29.43,North,0,0.0,0.0,67,0.00,,,0.00,Rainwise IP-100,2013-11-05 00:09:00,
2013-11-04 19:14:00,50.2,39.0,29.43,North,0,0.0,0.0,68,0.00,,,0.00,Rainwise IP-100,2013-11-05 00:14:00,
2013-11-04 19:19:00,50.0,40.0,29.43,North,0,0.0,0.0,69,0.00,,,0.00,Rainwise IP-100,2013-11-05 00:19:00,
2013-11-04 19:24:00,49.9,40.0,29.43,North,0,0.0,0.0,69,0.00,,,0.00,Rainwise IP-100,2013-11-05 00:24:00,
2013-11-04 19:29:00,49.7,40.0,29.43,North,0,0.0,0.0,70,0.00,,,0.00,Rainwise IP-100,2013-11-05 00:29:00,
2013-11-04 19:34:00,49.5,40.0,29.43,North,0,0.0,0.0,70,0.00,,,0.00,Rainwise IP-100,2013-11-05 00:34:00,
2013-11-04 19:39:00,49.3,40.0,29.44,North,0,0.0,1.0,71,0.00,,,0.00,Rainwise IP-100,2013-11-05 00:39:00,
2013-11-04 19:44:00,49.1,40.0,29.44,North,0,0.0,1.0,71,0.00,,,0.00,Rainwise IP-100,2013-11-05 00:44:00,
2013-11-04 19:49:00,49.0,40.0,29.44,North,0,0.0,0.0,71,0.00,,,0.00,Rainwise IP-100,2013-11-05 00:49:00,
2013-11-04 19:54:00,48.9,40.0,29.44,North,0,0.0,0.0,72,0.00,,,0.00,Rainwise IP-100,2013-11-05 00:54:00,
2013-11-04 19:59:00,48.7,40.0,29.45,North,0,0.0,1.0,72,0.00,,,0.00,Rainwise IP-100,2013-11-05 00:59:00,
2013-11-04 20:04:00,48.4,39.0,29.45,North,0,0.0,1.0,72,0.00,,,0.00,Rainwise IP-100,2013-11-05 01:04:00,
2013-11-04 20:09:00,48.2,40.0,29.45,North,0,0.0,1.0,73,0.00,,,0.00,Rainwise IP-100,2013-11-05 01:09:00,
2013-11-04 20:14:00,48.2,40.0,29.45,North,0,0.0,0.0,73,0.00,,,0.00,Rainwise IP-100,2013-11-05 01:14:00,
2013-11-04 20:19:00,48.0,40.0,29.46,North,0,0.0,1.0,73,0.00,,,0.00,Rainwise IP-100,2013-11-05 01:19:00,
2013-11-04 20:24:00,47.7,39.0,29.46,North,0,0.0,0.0,74,0.00,,,0.00,Rainwise IP-100,2013-11-05 01:24:00,
2013-11-04 20:29:00,47.4,39.0,29.46,North,0,0.0,1.0,74,0.00,,,0.00,Rainwise IP-100,2013-11-05 01:29:00,
2013-11-04 20:34:00,47.3,39.0,29.46,North,0,0.0,0.0,75,0.00,,,0.00,Rainwise IP-100,2013-11-05 01:34:00,
2013-11-04 20:39:00,47.1,39.0,29.47,North,0,0.0,0.0,75,0.00,,,0.00,Rainwise IP-100,2013-11-05 01:39:00,
2013-11-04 20:44:00,47.0,39.0,29.46,North,0,0.0,0.0,75,0.00,,,0.00,Rainwise IP-100,2013-11-05 01:44:00,
2013-11-04 20:49:00,46.8,39.0,29.47,North,0,0.0,0.0,76,0.00,,,0.00,Rainwise IP-100,2013-11-05 01:49:00,
2013-11-04 20:54:00,46.6,40.0,29.47,North,0,0.0,0.0,77,0.00,,,0.00,Rainwise IP-100,2013-11-05 01:54:00,
2013-11-04 20:59:00,46.5,40.0,29.47,North,0,0.0,0.0,77,0.00,,,0.00,Rainwise IP-100,2013-11-05 01:59:00,
2013-11-04 21:04:00,46.4,39.0,29.47,North,0,0.0,0.0,77,0.00,,,0.00,Rainwise IP-100,2013-11-05 02:04:00,
2013-11-04 21:09:00,46.3,39.0,29.47,North,0,0.0,0.0,78,0.00,,,0.00,Rainwise IP-100,2013-11-05 02:09:00,
2013-11-04 21:14:00,46.2,39.0,29.46,North,0,0.0,0.0,78,0.00,,,0.00,Rainwise IP-100,2013-11-05 02:14:00,
2013-11-04 21:19:00,46.1,39.0,29.47,North,0,0.0,0.0,79,0.00,,,0.00,Rainwise IP-100,2013-11-05 02:19:00,
2013-11-04 21:24:00,46.0,39.0,29.47,North,0,0.0,0.0,79,0.00,,,0.00,Rainwise IP-100,2013-11-05 02:24:00,
2013-11-04 21:29:00,46.0,40.0,29.47,North,0,0.0,0.0,80,0.00,,,0.00,Rainwise IP-100,2013-11-05 02:29:00,
2013-11-04 21:34:00,45.9,40.0,29.47,North,0,0.0,0.0,80,0.00,,,0.00,Rainwise IP-100,2013-11-05 02:34:00,
2013-11-04 21:39:00,45.8,40.0,29.47,North,0,0.0,0.0,80,0.00,,,0.00,Rainwise IP-100,2013-11-05 02:39:00,
2013-11-04 21:44:00,45.7,40.0,29.47,North,0,0.0,0.0,80,0.00,,,0.00,Rainwise IP-100,2013-11-05 02:44:00,
2013-11-04 21:49:00,45.6,40.0,29.47,North,0,0.0,0.0,81,0.00,,,0.00,Rainwise IP-100,2013-11-05 02:49:00,
2013-11-04 21:54:00,45.5,40.0,29.47,North,0,0.0,0.0,80,0.00,,,0.00,Rainwise IP-100,2013-11-05 02:54:00,
2013-11-04 21:59:00,45.5,40.0,29.47,North,0,0.0,0.0,80,0.00,,,0.00,Rainwise IP-100,2013-11-05 02:59:00,
2013-11-04 22:04:00,45.5,40.0,29.47,North,0,0.0,1.0,80,0.00,,,0.00,Rainwise IP-100,2013-11-05 03:04:00,
2013-11-04 22:09:00,45.5,40.0,29.47,North,0,0.0,0.0,80,0.00,,,0.00,Rainwise IP-100,2013-11-05 03:09:00,
2013-11-04 22:14:00,45.8,39.0,29.48,NNW,337,0.0,4.0,79,0.00,,,0.00,Rainwise IP-100,2013-11-05 03:14:00,
2013-11-04 22:19:00,46.1,39.0,29.47,NNW,337,0.0,0.0,78,0.00,,,0.00,Rainwise IP-100,2013-11-05 03:19:00,
2013-11-04 22:24:00,46.2,39.0,29.47,NNW,337,0.0,0.0,79,0.00,,,0.00,Rainwise IP-100,2013-11-05 03:24:00,
2013-11-04 22:29:00,46.2,39.0,29.48,West,270,0.0,1.0,78,0.00,,,0.00,Rainwise IP-100,2013-11-05 03:29:00,
2013-11-04 22:34:00,46.3,39.0,29.47,West,270,0.0,0.0,78,0.00,,,0.00,Rainwise IP-100,2013-11-05 03:34:00,
2013-11-04 22:39:00,46.4,39.0,29.47,West,270,0.0,0.0,77,0.00,,,0.00,Rainwise IP-100,2013-11-05 03:39:00,
2013-11-04 22:44:00,46.4,39.0,29.47,WNW,292,0.0,0.0,77,0.00,,,0.00,Rainwise IP-100,2013-11-05 03:44:00,
2013-11-04 22:49:00,46.4,39.0,29.47,North,0,0.0,2.0,76,0.00,,,0.00,Rainwise IP-100,2013-11-05 03:49:00,
2013-11-04 22:54:00,46.5,39.0,29.47,WNW,292,0.0,3.0,75,0.00,,,0.00,Rainwise IP-100,2013-11-05 03:54:00,
2013-11-04 22:59:00,46.6,39.0,29.46,WNW,292,0.0,0.0,75,0.00,,,0.00,Rainwise IP-100,2013-11-05 03:59:00,
2013-11-04 23:04:00,46.6,39.0,29.47,WNW,292,0.0,0.0,76,0.00,,,0.00,Rainwise IP-100,2013-11-05 04:04:00,
2013-11-04 23:09:00,46.6,39.0,29.47,WNW,292,0.0,2.0,76,0.00,,,0.00,Rainwise IP-100,2013-11-05 04:09:00,
2013-11-04 23:14:00,46.7,39.0,29.48,WNW,292,0.0,0.0,76,0.00,,,0.00,Rainwise IP-100,2013-11-05 04:14:00,
2013-11-04 23:19:00,46.6,39.0,29.48,WNW,292,0.0,0.0,76,0.00,,,0.00,Rainwise IP-100,2013-11-05 04:19:00,
2013-11-04 23:24:00,46.5,39.0,29.47,WNW,292,0.0,0.0,76,0.00,,,0.00,Rainwise IP-100,2013-11-05 04:24:00,
2013-11-04 23:29:00,46.4,39.0,29.47,WNW,292,0.0,0.0,76,0.00,,,0.00,Rainwise IP-100,2013-11-05 04:29:00,
2013-11-04 23:34:00,46.3,39.0,29.48,WNW,292,0.0,0.0,76,0.00,,,0.00,Rainwise IP-100,2013-11-05 04:34:00,
2013-11-04 23:39:00,46.2,39.0,29.48,WNW,292,0.0,0.0,77,0.00,,,0.00,Rainwise IP-100,2013-11-05 04:39:00,
2013-11-04 23:44:00,45.9,39.0,29.48,WNW,292,0.0,0.0,77,0.00,,,0.00,Rainwise IP-100,2013-11-05 04:44:00,
2013-11-04 23:49:00,45.7,39.0,29.48,WNW,292,0.0,0.0,78,0.00,,,0.00,Rainwise IP-100,2013-11-05 04:49:00,
2013-11-04 23:54:00,45.5,39.0,29.48,NNW,337,0.0,1.0,78,0.00,,,0.00,Rainwise IP-100,2013-11-05 04:54:00,
2013-11-04 23:59:00,45.5,39.0,29.47,NNW,337,0.0,1.0,77,0.00,,,0.00,Rainwise IP-100,2013-11-05 04:59:00,